Weather in Utichye

Russia / Kurgan Oblast     55°42′04″N   62°49′45″E
temp.,
°C
wind,
m/s
gust,
m/s
humid.,
%
clouds,
%
prec.,
mm/h
press.,
hPa
HPBL,
m
28 february, sun
sun2823:00−14se71293100 0.9 1015598
02:00−14se61294100 0.5 1012535
05:00−14ese51094100 1.0 1011420
08:00−15ese5109495 0.1 1010337
11:00−14e589496 0.3 1009350
14:00−13ene5893100 0.2 1008418
17:00−13ene6994100 0.5 1008414
20:00−14ne5995100 0.3 1009371
1 march, mon
mon123:00−16nne489699 0.4 1011269
02:00−17nne489598 0.1 1012309
05:00−19n479795 0.2 1013209
08:00−20nne479893 0.1 1015215
11:00−18n359597 0.1 1016306
14:00−16n3491100 0.1 1017380
17:00−15n2393100 0.3 1017308
20:00−17n119689 0.1 101820
2 march, tue
tue223:00−19wsw119885 0.1 101820
02:00−20sw1210073 0.0 101720
05:00−18sw129778 0.1 101629
08:00−19sw239779 0.1 101535
11:00−16sw349477 0.1 1014233
14:00−12sw348885 0.0 1013414
17:00−12s379392 0.0 1012285
20:00−17s479778 0.0 1011119
3 march, wed
wed323:00−19s479868 0.0 1010111
02:00−16s479594 0.0 1008167
05:00−15s489497 0.0 1007207
08:00−13s51094100 0.0 1007287
11:00−11ssw61092100 0.1 1006458
14:00−8ssw61091100 0.1 1004569
17:00−6s61192100 0.2 1003617
20:00−6s61294100 0.3 1001498
4 march, thu
thu423:00−5s61194100 0.5 1000425
02:00−4s51096100 0.6 997411
05:00−3s4897100 1.4 996355
08:00−4ssw4797100 1.1 995283
11:00−3wnw5895100 1.6 997462
14:00−6nw71192100 0.3 999560
17:00−6nw61090100 0.6 1001661
20:00−10wnw479194 0.0 1003127